Temperature
18 18 18 18 18 18 18 18 18 18 18 18 18 18 18 18 17 17 17 17 17 17 17 17 17 17 17 17 17 17 16 16 16 16 16 16 16 16 16 16 16 16 16
18 18 18 18 18 18 18 18 18 18 18 18 18 17 17 17 17 17 17 17 17 17 17 17 17 17 17 17 17 17 16 16 16 16 16 16 16 16 16 16 16 16 16
18 18 18 18 18 18 18 18 18 18 18 18 17 17 17 17 17 17 17 17 17 17 17 17 17 17 17 17 17 17 16 16 16 16 16 16 16 16 16 16 16 16 16
18 18 18 18 18 18 18 18 18 18 18 18 18 18 17 17 17 17 17 17 17 17 17 17 17 17 17 17 17 16 16 16 16 16 16 16 16 16 16 16 16 16 16
18 18 18 18 18 18 18 18 18 18 18 18 18 18 17 17 17 17 17 17 17 16 16 17 17 17 16 16 16 16 16 16 16 16 16 16 16 16 16 16 15 15 15
18 18 18 18 18 18 18 18 18 18 18 18 18 18 18 17 17 17 17 17 17 17 17 16 16 16 16 16 16 16 16 16 16 16 16 16 16 16 16 16 15 15 15
18 18 18 18 18 18 18 18 18 18 18 18 18 18 18 18 18 17 17 17 17 17 16 16 16 16 16 16 16 16 16 16 16 16 16 16 16 16 15 15 15 15 15
18 18 18 18 18 18 18 18 18 18 18 18 18 19 19 19 18 18 17 17 17 17 17 16 16 16 16 16 16 16 16 16 16 16 16 16 16 15 15 15 15 15 15
18 18 18 18 18 18 18 18 18 18 18 18 18 18 19 20 19 18 17 17 17 17 17 17 16 16 16 16 16 16 16 16 16 16 16 15 15 15 15 15 15 15 15
18 18 18 18 18 18 18 18 18 18 18 18 18 18 18 18 19 19 18 18 17 17 17 17 17 16 16 16 16 16 16 16 16 16 16 15 15 15 15 15 15 15 15
18 18 18 18 18 18 18 18 18 18 18 18 18 18 18 18 18 18 18 18 18 17 17 17 17 16 16 16 16 16 16 16 16 16 15 15 15 15 15 15 15 15 15
18 18 18 18 18 18 18 18 18 18 18 18 18 18 18 18 18 18 18 18 18 18 17 17 17 16 16 16 16 16 16 16 16 16 15 15 15 15 15 15 15 15 15
18 18 18 18 18 18 18 18 18 18 18 18 18 18 18 18 18 18 18 18 18 18 17 17 17 16 16 16 16 16 16 16 16 16 15 15 15 15 15 15 15 15 15
18 18 18 18 18 18 18 18 18 18 18 18 18 18 18 18 17 17 18 18 18 19 18 17 17 16 16 16 16 16 15 16 16 16 15 15 15 15 15 15 15 15 14
18 18 18 18 18 18 18 18 18 18 17 17 17 17 17 17 17 17 17 17 18 19 19 18 17 16 16 16 16 15 15 16 16 16 15 15 15 15 15 15 15 14 14
18 18 18 18 18 18 18 18 18 17 17 17 17 17 17 17 17 17 17 17 17 18 18 18 17 16 16 16 16 16 15 16 16 15 15 15 15 15 15 15 14 14 14
18 18 18 18 18 18 18 18 17 17 17 17 17 17 17 17 17 17 17 17 17 17 17 17 17 16 16 16 16 15 15 15 15 15 15 15 15 15 15 14 14 14 14
18 18 18 18 18 18 18 17 17 17 17 17 17 17 17 17 16 16 17 17 17 16 16 16 16 16 16 15 15 16 15 15 15 15 15 15 15 15 14 14 14 14 14
18 18 18 18 18 18 17 17 17 17 17 17 17 16 16 16 16 16 16 16 16 16 16 16 16 16 16 15 15 15 15 15 15 15 15 15 15 15 14 14 14 14 14
18 18 18 18 18 17 17 17 17 17 17 17 16 16 16 16 16 16 16 16 16 16 16 16 16 16 16 15 15 15 15 15 15 15 15 15 15 14 14 14 14 14 14
18 18 18 18 17 17 17 17 17 17 17 16 16 16 16 16 16 16 16 16 16 16 16 16 16 16 16 15 15 15 15 15 15 14 14 14 14 14 14 14 14 14 14
18 18 17 17 17 17 18 17 17 17 16 16 16 16 16 16 16 16 16 16 16 15 15 15 16 16 15 15 15 15 15 15 15 15 14 14 14 14 14 14 14 14 14
18 18 17 17 17 17 17 17 17 17 16 16 16 16 16 16 16 15 15 15 15 15 15 15 15 15 15 15 14 14 14 14 14 14 14 14 14 14 14 14 14 14 14
17 17 17 17 17 17 17 17 17 16 16 16 16 16 15 15 15 15 15 15 15 15 15 15 15 15 14 14 14 14 14 14 14 14 14 14 14 14 14 14 14 14 13
17 17 17 17 17 17 17 17 17 16 16 16 15 15 15 15 15 15 15 14 14 14 15 15 15 15 15 14 14 14 13 14 14 14 14 13 14 14 14 14 14 13 13
17 17 17 17 17 17 17 17 16 16 16 15 15 15 15 15 15 15 15 14 14 14 14 14 14 14 14 14 14 13 13 13 14 14 14 13 13 13 13 13 13 13 13
Wind_Speed
3 3 3 2 2 3 3 2 2 2 2 2 2 3 3 3 3 2 5 6 4 3 2 2 3 4 5 5 5 5 5 6 5 6 7 7 8 9 10 10 10 11 12
3 3 3 3 2 2 3 2 2 2 2 2 3 3 2 2 3 2 2 6 5 4 2 2 2 3 3 3 3 4 4 5 5 5 6 7 8 9 10 10 10 10 11
3 2 2 2 2 3 3 2 2 2 2 3 3 2 2 2 2 2 2 2 4 6 5 3 2 2 3 3 2 2 2 2 3 4 6 7 8 9 10 10 10 10 10
2 1 2 2 2 2 2 2 1 2 2 2 2 2 2 2 2 2 2 2 2 3 6 5 3 2 2 2 2 1 1 2 2 3 4 7 9 10 11 11 11 11 10
2 1 2 2 1 2 1 1 3 2 2 2 2 2 1 1 1 2 2 2 3 2 3 6 5 3 2 1 1 1 1 1 1 2 3 5 7 9 10 11 12 11 11
2 1 2 2 1 1 1 2 1 1 1 1 2 2 1 2 1 2 0 2 2 2 2 2 3 5 5 3 2 1 1 1 1 1 2 4 5 7 9 11 11 11 11
2 0 1 1 0 1 1 1 0 2 1 1 0 1 2 2 1 1 1 1 1 2 1 1 1 0 3 7 4 2 2 1 1 1 2 3 3 5 7 9 10 10 10
0 1 1 1 0 1 1 1 0 0 1 1 1 1 1 3 2 2 1 1 0 0 0 1 1 1 2 1 5 5 3 2 2 1 1 1 2 2 4 6 8 9 10
1 1 0 1 0 1 1 1 1 1 1 1 1 2 2 1 1 2 1 1 1 1 1 1 0 0 1 1 1 5 4 3 2 2 1 1 1 1 2 3 5 6 8
2 1 1 1 1 1 1 1 1 1 2 1 1 1 2 2 2 0 2 1 1 0 1 2 1 0 0 1 1 2 3 3 3 3 2 1 1 1 2 2 4 6 8
2 1 1 1 1 1 0 1 0 2 2 2 1 1 1 1 3 3 1 1 0 0 1 1 1 1 0 1 1 2 4 3 3 3 2 2 2 3 3 3 4 6 7
3 3 2 2 2 1 1 1 1 1 1 2 3 2 2 2 2 2 2 2 1 1 1 1 1 1 1 1 1 5 4 4 3 3 3 3 2 2 3 3 4 5 7
3 3 2 2 2 2 2 1 2 2 2 2 2 2 2 2 2 3 3 2 2 2 1 1 1 1 1 1 1 3 5 4 4 3 3 3 3 2 2 2 3 4 5
2 2 3 3 3 3 3 2 2 2 2 2 3 3 3 2 2 2 3 3 3 3 2 1 1 1 1 1 2 3 3 6 4 4 3 3 3 3 3 3 3 4 4
3 3 3 3 3 3 3 3 2 2 2 3 3 3 3 2 2 2 2 3 4 4 2 1 2 1 1 1 1 2 2 5 5 4 4 3 3 3 3 4 4 4 4
4 4 4 4 3 3 3 3 3 2 2 2 2 2 3 2 2 2 3 3 4 4 4 2 1 1 1 2 2 3 3 6 7 6 6 5 5 5 5 5 5 5 6
5 5 4 4 4 4 4 3 3 2 3 2 3 2 3 3 3 3 3 3 3 4 4 3 2 1 2 3 1 3 4 5 5 9 8 7 7 6 6 7 7 7 7
6 5 5 4 5 4 4 4 4 3 3 3 3 3 3 3 3 4 3 4 4 4 5 5 4 3 3 3 3 5 4 4 5 8 10 10 9 9 8 8 8 9 9
5 5 5 5 5 5 5 5 4 4 4 4 4 4 4 4 4 4 5 5 4 4 4 5 5 3 4 3 4 5 5 5 6 6 10 12 12 11 11 10 10 10 10
6 6 5 5 5 5 5 5 5 5 5 5 5 5 5 5 5 5 5 5 5 5 4 5 5 4 4 4 4 5 5 5 6 5 5 7 10 14 13 12 11 11 11
6 6 6 6 5 6 5 5 6 6 5 5 5 6 6 5 4 5 5 5 5 5 5 5 5 5 5 4 5 5 6 5 5 5 5 6 6 7 9 12 12 12 12
6 6 6 6 6 4 1 2 5 5 6 6 6 6 7 6 6 7 7 6 6 7 7 6 6 6 6 6 5 6 6 6 6 4 6 7 6 6 7 7 9 11 12
6 6 6 6 5 4 2 3 6 6 7 6 6 6 7 5 6 6 7 9 9 8 9 9 8 8 7 6 6 8 7 8 8 6 6 7 6 7 7 6 9 11 12
6 6 6 6 6 5 5 6 6 7 7 7 7 7 7 7 6 6 7 7 7 7 8 8 8 8 8 7 7 9 9 9 9 7 6 8 7 7 7 6 9 12 13
6 6 6 6 7 6 6 6 7 7 7 8 8 7 8 8 4 5 8 8 8 7 8 8 8 8 8 8 8 8 7 8 8 7 6 8 8 8 8 7 7 12 14
6 6 6 7 7 7 6 7 7 7 7 8 7 8 7 8 5 6 8 8 9 8 8 7 8 9 10 10 11 10 9 9 9 7 5 6 8 7 7 7 6 6 9
Wind_Direction
107 110 107 109 111 113 132 124 100 100 106 106 89 76 57 57 53 57 97 111 113 122 155 174 179 190 195 198 203 205 208 216 225 221 216 212 209 204 204 207 211 210 209
99 111 120 107 97 92 80 93 100 111 95 91 84 76 58 59 74 51 92 122 127 122 124 143 162 176 185 187 199 209 218 226 230 225 220 215 208 205 206 206 209 213 210
104 114 110 115 96 100 114 117 104 105 109 106 98 94 89 64 76 73 61 71 126 133 130 133 138 155 166 175 179 191 202 220 239 237 227 219 210 207 208 209 211 213 212
108 119 110 100 107 119 117 108 92 83 82 85 92 77 82 87 73 77 81 75 75 103 130 131 132 137 159 181 189 193 199 228 243 238 229 220 212 210 209 211 213 213 214
110 114 90 84 117 94 73 54 80 57 76 72 101 102 83 78 80 86 76 78 85 85 106 133 142 137 144 186 187 197 213 249 244 237 229 221 218 218 215 214 214 213 215
113 113 122 98 95 90 78 64 78 73 76 64 63 77 77 79 83 88 89 100 88 78 74 96 150 162 169 174 182 210 229 251 262 254 248 236 228 224 218 214 212 213 216
98 92 71 108 264 87 44 90 73 132 112 92 151 151 137 128 80 94 79 57 90 79 73 64 17 346 170 174 182 201 224 247 267 263 248 248 243 232 220 216 213 214 215
133 159 93 205 128 137 143 138 185 262 123 143 292 262 176 157 143 84 104 127 65 88 87 82 59 325 301 202 143 169 200 237 258 262 260 242 239 244 222 219 217 215 214
175 359 233 288 271 248 135 177 204 213 212 195 291 308 310 18 108 135 116 64 16 351 332 20 288 231 258 272 194 163 181 209 232 234 230 218 218 230 220 212 213 206 203
191 199 228 255 282 282 143 226 140 236 243 243 184 301 321 342 309 236 174 137 133 302 340 322 328 185 246 260 147 104 163 196 219 232 231 229 220 211 210 210 216 210 205
199 217 211 236 253 253 22 318 158 266 257 290 288 271 275 242 267 289 304 295 221 296 299 294 319 327 326 290 218 120 161 190 209 224 232 234 235 229 223 218 220 217 212
192 199 208 225 239 248 220 249 253 223 280 301 299 296 284 288 284 286 279 277 313 318 323 329 294 305 305 305 83 104 152 179 200 211 220 225 233 238 229 221 223 226 221
194 190 215 221 241 246 243 248 235 261 248 256 266 283 290 289 299 303 295 297 295 279 254 260 272 291 299 313 92 134 167 173 188 195 208 217 220 223 214 208 217 224 221
206 177 206 213 226 238 246 235 245 236 237 251 260 274 278 274 278 282 294 296 293 280 245 278 260 253 304 296 75 203 182 167 183 193 202 207 206 206 204 216 229 231 226
203 194 210 213 215 224 241 248 255 260 255 258 260 240 261 271 262 267 272 278 291 294 296 233 253 223 262 289 111 248 253 154 183 197 206 213 216 213 220 222 228 230 230
210 208 211 217 221 223 225 238 241 234 250 256 273 295 283 278 271 261 258 264 272 284 294 299 288 294 328 287 171 257 251 176 190 199 207 215 218 221 227 227 229 233 232
206 210 216 218 219 221 224 228 246 239 243 248 251 246 254 285 285 279 267 259 264 270 272 280 273 249 257 275 258 257 249 243 208 190 202 212 219 223 228 233 234 233 236
206 207 213 219 226 221 221 225 237 241 241 242 249 253 260 260 262 275 279 274 274 276 271 277 274 254 244 252 255 259 256 252 256 185 196 208 218 224 228 231 235 236 235
203 207 208 215 223 226 225 227 231 239 242 245 248 250 257 262 262 265 268 272 270 264 263 265 268 273 264 260 261 260 258 260 262 211 198 209 216 221 224 228 232 235 237
203 208 212 216 220 226 230 233 231 235 242 246 249 253 256 257 260 265 260 265 270 270 259 261 265 262 257 255 261 267 262 245 258 256 236 227 216 217 221 224 228 234 237
204 205 211 214 220 226 231 234 237 235 239 244 247 250 251 254 270 270 275 270 266 265 263 262 265 269 265 262 263 267 274 274 255 254 263 251 231 232 224 222 226 233 235
205 207 213 218 226 233 187 249 255 246 246 248 251 252 247 236 235 233 250 261 270 265 270 271 267 270 270 268 271 272 276 276 274 253 263 264 256 251 242 237 210 215 226
204 210 217 221 226 225 189 220 245 247 248 249 251 256 261 252 241 255 238 229 238 244 252 264 274 274 273 272 275 270 271 277 279 279 268 269 263 259 253 239 197 208 220
206 213 219 223 228 223 196 217 239 238 246 249 249 249 255 263 257 259 262 258 256 248 243 248 266 271 273 273 266 267 272 267 265 260 259 270 271 269 267 253 202 207 216
210 215 220 224 229 227 204 213 238 242 243 247 250 249 251 252 241 251 257 261 263 259 233 229 244 254 262 261 265 269 268 267 270 265 252 263 272 274 270 263 231 206 216
215 221 223 229 233 236 207 208 234 248 250 251 245 242 239 247 232 225 250 258 262 265 268 256 243 243 248 243 234 249 264 268 275 274 264 261 270 276 272 263 260 242 227
Height
1548 1549 1549 1551 1552 1553 1553 1553 1553 1553 1553 1554 1554 1554 1553 1553 1553 1552 1551 1550 1550 1550 1549 1549 1550 1550 1550 1551 1551 1551 1551 1552 1552 1552 1552 1553 1554 1555 1556 1557 1559 1560 1562
1548 1549 1551 1551 1552 1553 1553 1553 1553 1553 1553 1553 1554 1553 1553 1553 1552 1552 1552 1550 1549 1549 1548 1548 1549 1549 1549 1550 1550 1550 1550 1550 1550 1550 1550 1550 1551 1552 1553 1555 1556 1558 1560
1550 1551 1552 1552 1553 1553 1553 1553 1554 1554 1553 1554 1554 1553 1553 1553 1552 1552 1551 1551 1550 1548 1548 1548 1548 1548 1548 1549 1549 1549 1548 1548 1548 1547 1547 1547 1548 1549 1551 1552 1553 1555 1556
1551 1552 1553 1553 1553 1554 1554 1554 1554 1554 1554 1554 1554 1554 1553 1552 1552 1552 1551 1550 1550 1549 1548 1547 1547 1548 1548 1548 1548 1547 1547 1547 1546 1546 1545 1545 1545 1547 1548 1549 1551 1552 1554
1553 1553 1554 1554 1554 1555 1555 1555 1554 1554 1554 1554 1554 1554 1554 1553 1553 1552 1552 1551 1550 1549 1549 1547 1547 1547 1547 1547 1547 1547 1546 1546 1545 1544 1544 1544 1544 1545 1546 1547 1548 1549 1551
1554 1554 1555 1554 1555 1555 1555 1554 1554 1554 1555 1555 1555 1555 1554 1554 1553 1553 1552 1552 1551 1550 1550 1549 1548 1547 1547 1546 1546 1545 1545 1544 1544 1543 1543 1543 1543 1543 1544 1544 1545 1546 1547
1554 1554 1555 1555 1555 1555 1555 1555 1555 1555 1555 1555 1555 1555 1555 1554 1554 1553 1552 1552 1551 1550 1549 1548 1548 1548 1547 1546 1545 1544 1544 1543 1543 1542 1541 1541 1541 1541 1541 1542 1543 1543 1544
1554 1555 1554 1555 1555 1555 1554 1554 1554 1555 1555 1555 1555 1555 1554 1555 1553 1553 1552 1551 1551 1550 1549 1549 1547 1546 1547 1546 1545 1543 1543 1542 1541 1541 1540 1540 1539 1539 1539 1539 1540 1541 1541
1555 1554 1554 1555 1555 1555 1555 1554 1554 1554 1555 1555 1555 1555 1554 1553 1553 1553 1552 1551 1550 1549 1549 1549 1547 1546 1545 1545 1544 1542 1541 1541 1540 1539 1539 1538 1538 1537 1537 1537 1538 1538 1539
1554 1554 1554 1554 1554 1555 1554 1555 1554 1554 1554 1555 1554 1553 1554 1553 1553 1552 1552 1551 1550 1549 1548 1548 1547 1546 1545 1544 1542 1541 1540 1539 1539 1538 1537 1537 1536 1536 1535 1535 1535 1536 1536
1553 1554 1554 1554 1554 1554 1554 1553 1553 1553 1554 1554 1554 1553 1552 1552 1552 1552 1551 1551 1550 1549 1548 1547 1546 1545 1544 1543 1541 1540 1538 1538 1537 1536 1536 1535 1535 1534 1534 1533 1533 1533 1534
1553 1553 1553 1553 1553 1554 1553 1553 1552 1552 1552 1552 1552 1552 1552 1552 1551 1551 1550 1549 1548 1548 1547 1546 1545 1544 1543 1542 1540 1538 1537 1536 1535 1534 1534 1533 1533 1532 1532 1531 1531 1531 1532
1552 1552 1552 1552 1552 1552 1552 1552 1552 1552 1551 1551 1551 1551 1551 1551 1550 1550 1549 1548 1547 1547 1546 1545 1544 1543 1542 1541 1539 1536 1535 1534 1534 1533 1532 1532 1531 1530 1529 1529 1529 1529 1529
1551 1550 1550 1550 1551 1551 1551 1551 1551 1551 1550 1550 1550 1549 1549 1549 1548 1548 1548 1547 1546 1545 1544 1544 1543 1542 1541 1539 1537 1535 1534 1532 1532 1531 1530 1529 1529 1528 1527 1527 1527 1527 1526
1549 1549 1549 1549 1549 1549 1549 1549 1550 1549 1549 1549 1549 1548 1547 1547 1547 1546 1546 1546 1546 1544 1543 1542 1542 1540 1539 1537 1535 1534 1533 1531 1530 1529 1528 1527 1527 1526 1525 1525 1524 1524 1524
1546 1546 1547 1547 1548 1548 1548 1548 1548 1548 1547 1547 1546 1546 1545 1546 1545 1544 1544 1544 1543 1543 1542 1541 1540 1539 1537 1536 1534 1532 1531 1529 1528 1527 1526 1526 1525 1524 1523 1523 1522 1522 1521
1543 1544 1545 1545 1546 1546 1546 1546 1547 1546 1546 1545 1545 1544 1543 1543 1543 1543 1543 1542 1541 1541 1540 1539 1538 1536 1534 1533 1532 1530 1529 1528 1527 1525 1524 1523 1522 1521 1520 1520 1519 1519 1519
1541 1542 1542 1543 1544 1544 1544 1544 1544 1544 1544 1544 1543 1542 1542 1542 1541 1540 1540 1540 1539 1538 1537 1536 1535 1534 1532 1531 1529 1528 1527 1526 1525 1523 1521 1520 1519 1518 1518 1517 1517 1516 1516
1538 1539 1540 1541 1541 1542 1542 1542 1542 1542 1542 1541 1541 1540 1540 1539 1538 1538 1537 1537 1537 1536 1535 1534 1533 1532 1531 1529 1527 1526 1525 1523 1522 1521 1518 1517 1516 1515 1515 1514 1513 1513 1512
1536 1537 1537 1538 1539 1539 1539 1540 1539 1539 1539 1539 1538 1538 1537 1537 1536 1535 1535 1534 1533 1533 1532 1531 1530 1529 1527 1526 1524 1523 1522 1520 1519 1519 1516 1514 1513 1512 1511 1510 1509 1509 1508
1533 1534 1534 1535 1536 1536 1537 1537 1537 1537 1536 1536 1535 1534 1534 1533 1532 1532 1532 1531 1530 1529 1529 1528 1527 1526 1525 1523 1522 1520 1519 1518 1516 1515 1514 1512 1510 1509 1507 1506 1505 1504 1504
1530 1531 1531 1532 1533 1534 1533 1533 1533 1534 1533 1533 1532 1531 1531 1530 1528 1528 1527 1526 1526 1525 1525 1524 1523 1522 1520 1519 1518 1517 1516 1514 1513 1512 1510 1509 1508 1505 1504 1503 1501 1500 1499
1527 1528 1528 1529 1529 1529 1530 1530 1529 1530 1530 1529 1528 1528 1528 1527 1525 1525 1523 1522 1521 1520 1520 1519 1519 1517 1517 1515 1514 1513 1511 1510 1509 1508 1506 1504 1503 1502 1500 1498 1496 1496 1495
1524 1524 1525 1525 1525 1525 1525 1526 1526 1526 1525 1525 1524 1523 1523 1523 1522 1521 1520 1519 1518 1516 1515 1515 1513 1512 1512 1510 1509 1508 1506 1505 1503 1502 1501 1500 1499 1497 1496 1494 1492 1490 1490
1520 1520 1521 1521 1521 1521 1521 1521 1521 1521 1521 1520 1520 1519 1518 1518 1517 1517 1516 1515 1514 1513 1511 1510 1509 1507 1506 1505 1504 1503 1502 1501 1499 1498 1497 1495 1494 1492 1491 1489 1487 1485 1484
1516 1517 1517 1517 1517 1517 1517 1516 1516 1517 1517 1517 1515 1514 1513 1513 1512 1512 1511 1510 1509 1508 1507 1506 1504 1502 1501 1500 1499 1498 1497 1497 1494 1493 1491 1490 1489 1488 1486 1484 1483 1481 1479